Nenana, AK

8:16 AM AKST on February 10, 2016 (GMT -0900)
Nenana Municipal

Weather History for PANN - September, 2013

Change the Weather History Date:

Tuesday, September 10, 2013

  Actual Average Record
Temperature  
Mean Temperature 55 °F -  
Max Temperature 66 °F 55 °F 73 °F (1965)
Min Temperature 45 °F 33 °F 37 °F (2006)
Degree Days  
Heating Degree Days 10    
Growing Degree Days 5 (Base 50)    
Moisture  
Dew Point 44 °F    
Average Humidity 70    
Maximum Humidity 100    
Minimum Humidity 40    
Precipitation  
Precipitation 0.00 in - - ()
Sea Level Pressure  
Sea Level Pressure 29.71 in    
Wind  
Wind Speed 5 mph (East)    
Max Wind Speed 8 mph    
Max Gust Speed -    
Visibility 10 miles    
Events      
Averages and records for this station are not official NWS values.
T = Trace of Precipitation, MM = Missing Value Source: NWS Daily Summary

Daily Weather History Graph

Daily Weather History Graph

Search for Another Location

Airport or City:

Trip Planner

Search our weather history database for the weather conditions in past years. The results will help you decide how hot, cold, wet, or windy it might be!

Date:

Astronomy

Sep. 10, 2013 Rise Set
Actual Time 7:05 AM AKDT 8:38 PM AKDT
Civil Twilight 6:14 AM AKDT 9:29 PM AKDT
Nautical Twilight 5:08 AM AKDT 10:34 PM AKDT
Astronomical Twilight 3:38 AM AKDT 12:01 AM AKDT
Moon 3:00 PM AKDT 9:28 PM AKDT
Length of Visible Light 15h 15m
Length of Day
13h 33m
Waxing Crescent, 30% of the Moon is Illuminated
Sep 10
Waxing Crescent
Sep 12
First Quarter
Sep 19
Full
Sep 26
Last Quarter
Oct 4
New

Hourly Weather History & Observations

Time (AKDT) Temp. Windchill Dew Point Humidity Pressure Visibility Wind Dir Wind Speed Gust Speed Precip Events Conditions
12:53 AM 50.0 °F - 43.0 °F 77% 29.66 in 10.0 mi East 4.6 mph - N/A   Mostly Cloudy
1:53 AM 51.1 °F - 42.1 °F 71% 29.65 in 10.0 mi East 8.1 mph - N/A   Mostly Cloudy
2:53 AM 50.0 °F - 41.0 °F 71% 29.65 in 10.0 mi East 5.8 mph - N/A   Partly Cloudy
3:53 AM 48.0 °F - 39.9 °F 74% 29.65 in 10.0 mi East 8.1 mph - N/A   Clear
4:53 AM 48.0 °F - 39.9 °F 74% 29.65 in 10.0 mi ESE 4.6 mph - N/A   Clear
5:53 AM 46.9 °F - 39.9 °F 77% 29.65 in 10.0 mi East 3.5 mph - N/A   Clear
6:53 AM 46.0 °F 43.9 °F 39.9 °F 79% 29.66 in 10.0 mi SE 4.6 mph - N/A   Clear
7:53 AM 45.0 °F - 39.0 °F 80% 29.67 in 10.0 mi Calm Calm - N/A   Clear
8:53 AM 48.0 °F - 41.0 °F 77% 29.68 in 10.0 mi ENE 3.5 mph - N/A   Clear
9:53 AM 53.1 °F - 42.1 °F 66% 29.68 in 10.0 mi East 6.9 mph - N/A   Clear
10:53 AM 55.9 °F - 43.0 °F 62% 29.67 in 10.0 mi East 4.6 mph - N/A   Clear
11:53 AM 57.0 °F - 44.1 °F 62% 29.67 in 10.0 mi ENE 4.6 mph - N/A   Clear
12:53 PM 57.9 °F - 45.0 °F 62% 29.67 in 10.0 mi ENE 4.6 mph - N/A   Clear
1:53 PM 61.0 °F - 45.0 °F 56% 29.67 in 10.0 mi ENE 8.1 mph - N/A   Clear
2:53 PM 64.0 °F - 43.0 °F 46% 29.66 in 10.0 mi East 8.1 mph - N/A   Clear
3:53 PM 64.0 °F - 44.1 °F 48% 29.65 in 10.0 mi ENE 5.8 mph - N/A   Scattered Clouds
4:53 PM 63.0 °F - 44.1 °F 50% 29.65 in 10.0 mi ESE 6.9 mph - N/A   Overcast
5:53 PM 66.0 °F - 41.0 °F 40% 29.65 in 10.0 mi Variable 6.9 mph - N/A   Overcast
6:53 PM 63.0 °F - 43.0 °F 48% 29.65 in 10.0 mi SSE 5.8 mph - N/A   Partly Cloudy
7:53 PM 61.0 °F - 41.0 °F 48% 29.67 in 10.0 mi SSE 8.1 mph - N/A   Clear
8:53 PM 54.0 °F - 46.0 °F 75% 29.68 in 10.0 mi Calm Calm - N/A   Mostly Cloudy
9:53 PM 50.0 °F - 45.0 °F 83% 29.69 in 10.0 mi Calm Calm - N/A   Clear
10:53 PM 48.0 °F - 44.1 °F 86% 29.69 in 10.0 mi Calm Calm - N/A   Clear
11:53 PM 45.0 °F - 43.0 °F 93% 29.69 in 10.0 mi Calm Calm - N/A   Clear